JASON-3 (41240 NORAD) Tracking and Keplerian Element Data

This shows tracking and keplerian element data for the satellite.

Feedback or suggestion? Click here.




ElementValue
Catalog41240
NameJASON-3
Epoch Orbit42335
Epoch Day35.19607758
Epoch Year2025
RAAN89.6782
Inclination66.0413
Eccentricity0.0008027
Argument of Perigee271.3155
Mean Anonmoly88.6941
Mean Motion12.80927758
Decay Rate-2.5E-07
L11 41240U 16002A 25035.19607758 -.00000025 00000+0 15422-3 0 9992
L22 41240 66.0413 89.6782 0008027 271.3155 88.6941 12.80927758423356



Live tracking and technical data element details for JASON-3 (NORAD 41240). JASON-3 can be tracked NOW for your location showing map with azimuth and elevation plus other details from your city location.







IsCatalogInMostPopularTable: catalog: 41240, numindb: 643
Update: records affected: 1



GetName: 41240 JASON-3

Hit Count: updated at: Wed, 18 Jun 2025 05:17:41 GMT